Location: Gazon
(48.1318°N, 1.2708°W)
Time: 01:48:44
(UTC+00:00)

Meteor 2-5 Rocket - Pass Details

Date: 18 September 2020
Orbit: 833 x 912 km, 81.2° (Epoch: 29 October)

Event Time Altitude Azimuth Distance (km) Brightness Sun altitude
Rises 20:20:38 0° 349° (N) 3,414 7.4 -21.6°
Reaches altitude 10° 20:23:03 10° 351° (N) 2,483 6.6 -21.9°
Maximum altitude 20:28:42 77° 77° (ENE) 888 3.6 -22.8°
Enters shadow 20:30:22 47° 152° (SSE) 1,126 3.9 -23.0°
